Time,TemperatureF,DewpointF,PressureIn,WindDirection,WindDirectionDegrees,WindSpeedMPH,WindSpeedGustMPH,Humidity,HourlyPrecipIn,Conditions,Clouds,dailyrainin,SoftwareType,DateUTC
2013-04-25 00:01:00,42.5,36.8,30.15,NNW,343,3.0,13.0,80,0.00,,,0.00,WUHU216DAVISVP2,2013-04-25 04:01:00,
2013-04-25 00:06:00,42.4,36.1,30.15,NW,320,1.0,11.0,78,0.00,,,0.00,WUHU216DAVISVP2,2013-04-25 04:06:00,
2013-04-25 00:11:00,42.4,36.1,30.15,WNW,290,1.0,10.0,78,0.00,,,0.00,WUHU216DAVISVP2,2013-04-25 04:11:00,
2013-04-25 00:16:00,42.3,36.0,30.15,WNW,297,4.0,10.0,78,0.00,,,0.00,WUHU216DAVISVP2,2013-04-25 04:16:00,
2013-04-25 00:21:00,42.2,36.5,30.15,NW,312,1.0,10.0,80,0.00,,,0.00,WUHU216DAVISVP2,2013-04-25 04:21:00,
2013-04-25 00:26:00,42.1,36.4,30.15,North,349,2.0,7.0,80,0.00,,,0.00,WUHU216DAVISVP2,2013-04-25 04:26:00,
2013-04-25 00:31:00,41.8,36.1,30.16,NNW,337,2.0,7.0,80,0.00,,,0.00,WUHU216DAVISVP2,2013-04-25 04:31:00,
2013-04-25 00:36:00,41.7,36.6,30.16,WNW,301,2.0,7.0,82,0.00,,,0.00,WUHU216DAVISVP2,2013-04-25 04:36:00,
2013-04-25 00:41:00,41.7,35.4,30.16,NW,324,6.0,12.0,78,0.00,,,0.00,WUHU216DAVISVP2,2013-04-25 04:41:00,
2013-04-25 00:46:00,41.7,35.1,30.16,North,359,4.0,13.0,77,0.00,,,0.00,WUHU216DAVISVP2,2013-04-25 04:46:00,
2013-04-25 00:51:00,41.6,35.0,30.16,NW,312,4.0,13.0,77,0.00,,,0.00,WUHU216DAVISVP2,2013-04-25 04:51:00,
2013-04-25 00:56:00,41.6,35.3,30.16,North,359,5.0,13.0,78,0.00,,,0.00,WUHU216DAVISVP2,2013-04-25 04:56:00,
2013-04-25 01:01:00,41.5,35.8,30.16,NW,312,1.0,13.0,80,0.00,,,0.00,WUHU216DAVISVP2,2013-04-25 05:01:00,
2013-04-25 01:06:00,41.5,35.8,30.17,WNW,287,3.0,8.0,80,0.00,,,0.00,WUHU216DAVISVP2,2013-04-25 05:06:00,
2013-04-25 01:11:00,41.4,35.7,30.17,SW,222,2.0,8.0,80,0.00,,,0.00,WUHU216DAVISVP2,2013-04-25 05:11:00,
2013-04-25 01:16:00,41.3,35.3,30.17,WSW,239,6.0,9.0,79,0.00,,,0.00,WUHU216DAVISVP2,2013-04-25 05:16:00,
2013-04-25 01:21:00,41.2,35.2,30.17,NW,311,7.0,11.0,79,0.00,,,0.00,WUHU216DAVISVP2,2013-04-25 05:21:00,
2013-04-25 01:26:00,41.1,35.1,30.17,WNW,297,7.0,13.0,79,0.00,,,0.00,WUHU216DAVISVP2,2013-04-25 05:26:00,
2013-04-25 01:31:00,41.0,34.7,30.17,West,270,6.0,13.0,78,0.00,,,0.00,WUHU216DAVISVP2,2013-04-25 05:31:00,
2013-04-25 01:36:00,40.9,34.9,30.17,South,188,1.0,13.0,79,0.00,,,0.00,WUHU216DAVISVP2,2013-04-25 05:36:00,
2013-04-25 01:41:00,40.9,35.2,30.18,NW,311,2.0,13.0,80,0.00,,,0.00,WUHU216DAVISVP2,2013-04-25 05:41:00,
2013-04-25 01:46:00,40.5,35.7,30.18,WNW,297,4.0,10.0,83,0.02,,,0.02,WUHU216DAVISVP2,2013-04-25 05:46:00,
2013-04-25 01:51:00,40.0,35.5,30.18,SSW,204,0.0,10.0,84,0.02,,,0.02,WUHU216DAVISVP2,2013-04-25 05:51:00,
2013-04-25 01:56:00,39.7,35.5,30.18,NW,312,5.0,10.0,85,0.03,,,0.03,WUHU216DAVISVP2,2013-04-25 05:56:00,
2013-04-25 02:01:00,39.5,35.6,30.18,WNW,302,1.0,10.0,86,0.03,,,0.03,WUHU216DAVISVP2,2013-04-25 06:01:00,
2013-04-25 02:06:00,39.5,35.6,30.19,WNW,297,3.0,6.0,86,0.03,,,0.03,WUHU216DAVISVP2,2013-04-25 06:06:00,
2013-04-25 02:11:00,39.6,35.7,30.18,NW,314,2.0,6.0,86,0.03,,,0.03,WUHU216DAVISVP2,2013-04-25 06:11:00,
2013-04-25 02:16:00,39.6,36.0,30.18,NW,314,0.0,5.0,87,0.03,,,0.03,WUHU216DAVISVP2,2013-04-25 06:16:00,
2013-04-25 02:21:00,39.6,36.0,30.18,WNW,290,2.0,5.0,87,0.03,,,0.03,WUHU216DAVISVP2,2013-04-25 06:21:00,
2013-04-25 02:26:00,39.6,35.7,30.18,NNW,339,3.0,6.0,86,0.03,,,0.03,WUHU216DAVISVP2,2013-04-25 06:26:00,
2013-04-25 02:31:00,39.6,35.4,30.19,WNW,287,6.0,8.0,85,0.03,,,0.03,WUHU216DAVISVP2,2013-04-25 06:31:00,
2013-04-25 02:36:00,39.6,35.4,30.19,NW,314,0.0,8.0,85,0.04,,,0.04,WUHU216DAVISVP2,2013-04-25 06:36:00,
2013-04-25 02:41:00,39.5,35.6,30.18,WNW,293,1.0,8.0,86,0.04,,,0.04,WUHU216DAVISVP2,2013-04-25 06:41:00,
2013-04-25 02:46:00,39.4,35.8,30.19,North,354,2.0,8.0,87,0.02,,,0.04,WUHU216DAVISVP2,2013-04-25 06:46:00,
2013-04-25 02:51:00,39.2,35.7,30.19,West,261,2.0,7.0,87,0.02,,,0.04,WUHU216DAVISVP2,2013-04-25 06:51:00,
2013-04-25 02:56:00,39.0,35.2,30.19,WNW,283,3.0,7.0,86,0.01,,,0.04,WUHU216DAVISVP2,2013-04-25 06:56:00,
2013-04-25 03:01:00,39.0,35.2,30.19,NW,308,3.0,8.0,86,0.01,,,0.04,WUHU216DAVISVP2,2013-04-25 07:01:00,
2013-04-25 03:06:00,38.9,35.0,30.19,NW,312,6.0,9.0,86,0.01,,,0.04,WUHU216DAVISVP2,2013-04-25 07:06:00,
2013-04-25 03:11:00,38.8,34.9,30.19,WNW,299,2.0,9.0,86,0.01,,,0.04,WUHU216DAVISVP2,2013-04-25 07:11:00,
2013-04-25 03:16:00,38.7,34.8,30.19,West,271,3.0,9.0,86,0.01,,,0.04,WUHU216DAVISVP2,2013-04-25 07:16:00,
2013-04-25 03:21:00,38.6,34.7,30.20,West,274,7.0,10.0,86,0.02,,,0.05,WUHU216DAVISVP2,2013-04-25 07:21:00,
2013-04-25 03:26:00,38.5,34.9,30.20,SSW,212,0.0,11.0,87,0.02,,,0.05,WUHU216DAVISVP2,2013-04-25 07:26:00,
2013-04-25 03:31:00,38.4,34.6,30.20,WNW,293,2.0,12.0,86,0.02,,,0.05,WUHU216DAVISVP2,2013-04-25 07:31:00,
2013-04-25 03:36:00,38.3,34.8,30.21,NW,324,3.0,12.0,87,0.01,,,0.05,WUHU216DAVISVP2,2013-04-25 07:36:00,
2013-04-25 03:41:00,38.3,34.5,30.21,West,273,2.0,12.0,86,0.01,,,0.05,WUHU216DAVISVP2,2013-04-25 07:41:00,
2013-04-25 03:46:00,38.4,34.6,30.20,NW,305,7.0,10.0,86,0.01,,,0.05,WUHU216DAVISVP2,2013-04-25 07:46:00,
2013-04-25 03:51:00,38.6,34.7,30.21,WNW,298,2.0,10.0,86,0.01,,,0.05,WUHU216DAVISVP2,2013-04-25 07:51:00,
2013-04-25 03:56:00,38.6,34.2,30.21,West,261,3.0,11.0,84,0.01,,,0.05,WUHU216DAVISVP2,2013-04-25 07:56:00,
2013-04-25 04:01:00,38.7,34.3,30.22,WNW,297,1.0,11.0,84,0.01,,,0.05,WUHU216DAVISVP2,2013-04-25 08:01:00,
2013-04-25 04:06:00,38.7,34.6,30.22,WNW,291,1.0,11.0,85,0.01,,,0.05,WUHU216DAVISVP2,2013-04-25 08:06:00,
2013-04-25 04:11:00,38.6,34.2,30.22,WSW,256,2.0,8.0,84,0.01,,,0.05,WUHU216DAVISVP2,2013-04-25 08:11:00,
2013-04-25 04:16:00,38.6,34.5,30.22,WSW,256,7.0,7.0,85,0.01,,,0.05,WUHU216DAVISVP2,2013-04-25 08:16:00,
2013-04-25 04:21:00,38.6,34.2,30.21,SW,220,1.0,7.0,84,0.00,,,0.05,WUHU216DAVISVP2,2013-04-25 08:21:00,
2013-04-25 04:26:00,38.6,34.2,30.22,WSW,240,0.0,7.0,84,0.00,,,0.05,WUHU216DAVISVP2,2013-04-25 08:26:00,
2013-04-25 04:31:00,38.6,34.5,30.22,West,262,3.0,7.0,85,0.00,,,0.05,WUHU216DAVISVP2,2013-04-25 08:31:00,
2013-04-25 04:36:00,38.5,34.1,30.22,NW,323,2.0,6.0,84,0.00,,,0.05,WUHU216DAVISVP2,2013-04-25 08:36:00,
2013-04-25 04:41:00,38.5,34.1,30.22,NW,305,0.0,6.0,84,0.00,,,0.05,WUHU216DAVISVP2,2013-04-25 08:41:00,
2013-04-25 04:46:00,38.5,34.1,30.22,SW,233,0.0,6.0,84,0.00,,,0.05,WUHU216DAVISVP2,2013-04-25 08:46:00,
2013-04-25 04:51:00,38.4,34.0,30.22,WNW,292,1.0,6.0,84,0.00,,,0.05,WUHU216DAVISVP2,2013-04-25 08:51:00,
2013-04-25 04:56:00,38.4,33.7,30.22,WSW,237,4.0,9.0,83,0.00,,,0.05,WUHU216DAVISVP2,2013-04-25 08:56:00,
2013-04-25 05:01:00,38.4,33.4,30.23,WSW,252,4.0,9.0,82,0.00,,,0.05,WUHU216DAVISVP2,2013-04-25 09:01:00,
2013-04-25 05:06:00,38.4,33.7,30.23,West,278,0.0,9.0,83,0.00,,,0.05,WUHU216DAVISVP2,2013-04-25 09:06:00,
2013-04-25 05:11:00,38.4,33.7,30.23,SSW,204,2.0,9.0,83,0.00,,,0.05,WUHU216DAVISVP2,2013-04-25 09:11:00,
2013-04-25 05:16:00,38.4,33.7,30.23,WSW,237,0.0,6.0,83,0.00,,,0.05,WUHU216DAVISVP2,2013-04-25 09:16:00,
2013-04-25 05:21:00,38.4,33.4,30.22,SW,219,0.0,5.0,82,0.00,,,0.05,WUHU216DAVISVP2,2013-04-25 09:21:00,
2013-04-25 05:26:00,38.4,33.4,30.23,WSW,246,0.0,5.0,82,0.00,,,0.05,WUHU216DAVISVP2,2013-04-25 09:26:00,
2013-04-25 05:31:00,38.4,33.7,30.23,SW,229,0.0,5.0,83,0.00,,,0.05,WUHU216DAVISVP2,2013-04-25 09:31:00,
2013-04-25 05:36:00,38.3,33.6,30.22,SW,229,0.0,5.0,83,0.00,,,0.05,WUHU216DAVISVP2,2013-04-25 09:36:00,
2013-04-25 05:41:00,38.3,33.6,30.22,SW,226,2.0,5.0,83,0.00,,,0.05,WUHU216DAVISVP2,2013-04-25 09:41:00,
2013-04-25 05:46:00,38.3,33.6,30.22,SW,225,1.0,5.0,83,0.00,,,0.05,WUHU216DAVISVP2,2013-04-25 09:46:00,
2013-04-25 05:51:00,38.1,33.1,30.23,SSW,201,0.0,5.0,82,0.00,,,0.05,WUHU216DAVISVP2,2013-04-25 09:51:00,
2013-04-25 05:56:00,38.0,33.3,30.23,West,261,0.0,5.0,83,0.00,,,0.05,WUHU216DAVISVP2,2013-04-25 09:56:00,
2013-04-25 06:01:00,37.9,33.2,30.23,West,261,0.0,3.0,83,0.00,,,0.05,WUHU216DAVISVP2,2013-04-25 10:01:00,
2013-04-25 06:06:00,37.7,33.3,30.23,West,261,0.0,3.0,84,0.00,,,0.05,WUHU216DAVISVP2,2013-04-25 10:06:00,
2013-04-25 06:11:00,37.4,32.7,30.23,SSW,201,1.0,3.0,83,0.00,,,0.05,WUHU216DAVISVP2,2013-04-25 10:11:00,
2013-04-25 06:16:00,37.2,32.8,30.23,SSW,201,0.0,3.0,84,0.00,,,0.05,WUHU216DAVISVP2,2013-04-25 10:16:00,
2013-04-25 06:21:00,36.9,32.5,30.23,SSW,201,0.0,3.0,84,0.00,,,0.05,WUHU216DAVISVP2,2013-04-25 10:21:00,
2013-04-25 06:26:00,36.7,32.3,30.23,SSW,202,0.0,3.0,84,0.00,,,0.05,WUHU216DAVISVP2,2013-04-25 10:26:00,
2013-04-25 06:31:00,36.5,32.1,30.23,SSW,201,0.0,2.0,84,0.00,,,0.05,WUHU216DAVISVP2,2013-04-25 10:31:00,
2013-04-25 06:36:00,36.4,32.3,30.24,WSW,251,2.0,3.0,85,0.00,,,0.05,WUHU216DAVISVP2,2013-04-25 10:36:00,
2013-04-25 06:41:00,36.5,32.4,30.24,NW,304,0.0,4.0,85,0.00,,,0.05,WUHU216DAVISVP2,2013-04-25 10:41:00,
2013-04-25 06:46:00,36.6,32.5,30.24,WNW,295,2.0,4.0,85,0.00,,,0.05,WUHU216DAVISVP2,2013-04-25 10:46:00,
2013-04-25 06:51:00,36.7,32.9,30.24,West,276,1.0,4.0,86,0.00,,,0.05,WUHU216DAVISVP2,2013-04-25 10:51:00,
2013-04-25 06:56:00,36.6,32.8,30.24,West,276,0.0,4.0,86,0.00,,,0.05,WUHU216DAVISVP2,2013-04-25 10:56:00,
2013-04-25 07:01:00,36.6,32.8,30.24,West,276,0.0,4.0,86,0.00,,,0.05,WUHU216DAVISVP2,2013-04-25 11:01:00,
2013-04-25 07:06:00,36.5,32.7,30.25,West,272,1.0,4.0,86,0.00,,,0.05,WUHU216DAVISVP2,2013-04-25 11:06:00,
2013-04-25 07:11:00,36.5,33.0,30.25,WSW,239,0.0,4.0,87,0.00,,,0.05,WUHU216DAVISVP2,2013-04-25 11:11:00,
2013-04-25 07:16:00,36.4,32.9,30.25,WNW,292,0.0,4.0,87,0.00,,,0.05,WUHU216DAVISVP2,2013-04-25 11:16:00,
2013-04-25 07:21:00,36.4,32.9,30.25,WNW,292,0.0,4.0,87,0.00,,,0.05,WUHU216DAVISVP2,2013-04-25 11:21:00,
2013-04-25 07:26:00,36.4,32.9,30.26,WNW,290,1.0,3.0,87,0.00,,,0.05,WUHU216DAVISVP2,2013-04-25 11:26:00,
2013-04-25 07:31:00,36.5,33.0,30.26,WNW,289,0.0,3.0,87,0.00,,,0.05,WUHU216DAVISVP2,2013-04-25 11:31:00,
2013-04-25 07:36:00,36.8,33.3,30.26,WNW,289,2.0,2.0,87,0.00,,,0.05,WUHU216DAVISVP2,2013-04-25 11:36:00,
2013-04-25 07:41:00,37.1,32.7,30.26,WNW,289,1.0,2.0,84,0.00,,,0.05,WUHU216DAVISVP2,2013-04-25 11:41:00,
2013-04-25 07:46:00,37.4,32.7,30.26,WNW,289,1.0,2.0,83,0.00,,,0.05,WUHU216DAVISVP2,2013-04-25 11:46:00,
2013-04-25 07:51:00,37.7,33.3,30.27,WNW,289,1.0,3.0,84,0.00,,,0.05,WUHU216DAVISVP2,2013-04-25 11:51:00,
2013-04-25 07:56:00,37.9,32.9,30.27,WSW,247,0.0,3.0,82,0.00,,,0.05,WUHU216DAVISVP2,2013-04-25 11:56:00,
2013-04-25 08:01:00,38.1,32.5,30.27,SSW,197,0.0,3.0,80,0.00,,,0.05,WUHU216DAVISVP2,2013-04-25 12:01:00,
2013-04-25 08:06:00,38.4,33.1,30.27,SSW,197,1.0,3.0,81,0.00,,,0.05,WUHU216DAVISVP2,2013-04-25 12:06:00,
2013-04-25 08:11:00,38.6,33.0,30.27,SSW,209,2.0,4.0,80,0.00,,,0.05,WUHU216DAVISVP2,2013-04-25 12:11:00,
2013-04-25 08:16:00,38.9,32.3,30.27,SSW,209,1.0,4.0,77,0.00,,,0.05,WUHU216DAVISVP2,2013-04-25 12:16:00,
2013-04-25 08:21:00,39.1,32.5,30.27,WSW,245,3.0,4.0,77,0.00,,,0.05,WUHU216DAVISVP2,2013-04-25 12:21:00,
2013-04-25 08:26:00,39.2,32.3,30.27,SW,214,1.0,6.0,76,0.00,,,0.05,WUHU216DAVISVP2,2013-04-25 12:26:00,
2013-04-25 08:31:00,39.5,32.9,30.27,WSW,243,3.0,6.0,77,0.00,,,0.05,WUHU216DAVISVP2,2013-04-25 12:31:00,
2013-04-25 08:36:00,39.9,32.7,30.27,SW,221,0.0,7.0,75,0.00,,,0.05,WUHU216DAVISVP2,2013-04-25 12:36:00,
2013-04-25 08:41:00,40.2,33.0,30.27,SW,227,3.0,7.0,75,0.00,,,0.05,WUHU216DAVISVP2,2013-04-25 12:41:00,
2013-04-25 08:46:00,40.6,33.4,30.27,SW,216,6.0,7.0,75,0.00,,,0.05,WUHU216DAVISVP2,2013-04-25 12:46:00,
2013-04-25 08:51:00,40.9,33.0,30.28,SW,218,7.0,10.0,73,0.00,,,0.05,WUHU216DAVISVP2,2013-04-25 12:51:00,
2013-04-25 08:56:00,41.1,33.5,30.28,NW,316,3.0,10.0,74,0.00,,,0.05,WUHU216DAVISVP2,2013-04-25 12:56:00,
2013-04-25 09:01:00,41.2,32.9,30.28,NW,310,2.0,10.0,72,0.00,,,0.05,WUHU216DAVISVP2,2013-04-25 13:01:00,
2013-04-25 09:06:00,41.3,33.4,30.28,SSW,193,4.0,10.0,73,0.00,,,0.05,WUHU216DAVISVP2,2013-04-25 13:06:00,
2013-04-25 09:11:00,41.4,32.8,30.28,WSW,245,2.0,7.0,71,0.00,,,0.05,WUHU216DAVISVP2,2013-04-25 13:11:00,
2013-04-25 09:16:00,41.6,32.6,30.28,South,179,7.0,8.0,70,0.00,,,0.05,WUHU216DAVISVP2,2013-04-25 13:16:00,
2013-04-25 09:21:00,41.9,33.6,30.28,West,266,3.0,8.0,72,0.00,,,0.05,WUHU216DAVISVP2,2013-04-25 13:21:00,
2013-04-25 09:26:00,42.3,34.0,30.28,West,268,3.0,8.0,72,0.00,,,0.05,WUHU216DAVISVP2,2013-04-25 13:26:00,
2013-04-25 09:31:00,42.4,33.4,30.28,WNW,301,4.0,8.0,70,0.00,,,0.05,WUHU216DAVISVP2,2013-04-25 13:31:00,
2013-04-25 09:36:00,42.7,33.3,30.28,West,265,2.0,7.0,69,0.00,,,0.05,WUHU216DAVISVP2,2013-04-25 13:36:00,
2013-04-25 09:41:00,43.0,33.2,30.28,SW,235,1.0,6.0,68,0.00,,,0.05,WUHU216DAVISVP2,2013-04-25 13:41:00,
2013-04-25 09:46:00,43.0,33.2,30.28,SW,233,5.0,8.0,68,0.00,,,0.05,WUHU216DAVISVP2,2013-04-25 13:46:00,
2013-04-25 09:51:00,43.1,33.0,30.28,SSW,212,6.0,8.0,67,0.00,,,0.05,WUHU216DAVISVP2,2013-04-25 13:51:00,
2013-04-25 09:56:00,43.2,33.8,30.28,SSW,195,5.0,9.0,69,0.00,,,0.05,WUHU216DAVISVP2,2013-04-25 13:56:00,
2013-04-25 10:01:00,43.4,32.5,30.28,WNW,289,3.0,9.0,65,0.00,,,0.05,WUHU216DAVISVP2,2013-04-25 14:01:00,
2013-04-25 10:06:00,44.0,33.1,30.28,NW,326,8.0,9.0,65,0.00,,,0.05,WUHU216DAVISVP2,2013-04-25 14:06:00,
2013-04-25 10:11:00,44.1,31.6,30.28,SW,222,3.0,9.0,61,0.00,,,0.05,WUHU216DAVISVP2,2013-04-25 14:11:00,
2013-04-25 10:16:00,44.1,32.0,30.28,SW,217,4.0,9.0,62,0.00,,,0.05,WUHU216DAVISVP2,2013-04-25 14:16:00,
2013-04-25 10:21:00,43.9,31.8,30.28,SW,217,3.0,9.0,62,0.00,,,0.05,WUHU216DAVISVP2,2013-04-25 14:21:00,
2013-04-25 10:26:00,44.1,33.6,30.28,SW,226,3.0,9.0,66,0.00,,,0.05,WUHU216DAVISVP2,2013-04-25 14:26:00,
2013-04-25 10:31:00,44.4,32.7,30.28,WNW,293,1.0,9.0,63,0.00,,,0.05,WUHU216DAVISVP2,2013-04-25 14:31:00,
2013-04-25 10:36:00,45.0,33.6,30.28,West,264,5.0,8.0,64,0.00,,,0.05,WUHU216DAVISVP2,2013-04-25 14:36:00,
2013-04-25 10:41:00,45.4,32.8,30.27,NW,312,3.0,10.0,61,0.00,,,0.05,WUHU216DAVISVP2,2013-04-25 14:41:00,
2013-04-25 10:46:00,45.6,31.7,30.28,WNW,294,3.0,10.0,58,0.00,,,0.05,WUHU216DAVISVP2,2013-04-25 14:46:00,
2013-04-25 10:51:00,45.8,32.8,30.27,WSW,242,4.0,10.0,60,0.00,,,0.05,WUHU216DAVISVP2,2013-04-25 14:51:00,
2013-04-25 10:56:00,46.1,32.2,30.28,SW,224,4.0,7.0,58,0.00,,,0.05,WUHU216DAVISVP2,2013-04-25 14:56:00,
2013-04-25 11:01:00,46.4,33.8,30.28,SW,218,4.0,7.0,61,0.00,,,0.05,WUHU216DAVISVP2,2013-04-25 15:01:00,
2013-04-25 11:06:00,46.6,32.2,30.27,WNW,303,1.0,7.0,57,0.00,,,0.05,WUHU216DAVISVP2,2013-04-25 15:06:00,
2013-04-25 11:11:00,46.9,32.4,30.28,SSW,212,2.0,7.0,57,0.00,,,0.05,WUHU216DAVISVP2,2013-04-25 15:11:00,
2013-04-25 11:16:00,47.3,31.5,30.28,SW,220,3.0,10.0,54,0.00,,,0.05,WUHU216DAVISVP2,2013-04-25 15:16:00,
2013-04-25 11:21:00,47.5,31.7,30.27,SSW,201,4.0,12.0,54,0.00,,,0.05,WUHU216DAVISVP2,2013-04-25 15:21:00,
2013-04-25 11:26:00,47.9,32.5,30.27,ENE,75,0.0,12.0,55,0.00,,,0.05,WUHU216DAVISVP2,2013-04-25 15:26:00,
2013-04-25 11:31:00,48.6,33.2,30.27,SSW,211,4.0,12.0,55,0.00,,,0.05,WUHU216DAVISVP2,2013-04-25 15:31:00,
2013-04-25 11:36:00,49.0,34.0,30.27,WSW,247,5.0,12.0,56,0.00,,,0.05,WUHU216DAVISVP2,2013-04-25 15:36:00,
2013-04-25 11:41:00,49.2,33.8,30.27,West,266,3.0,9.0,55,0.00,,,0.05,WUHU216DAVISVP2,2013-04-25 15:41:00,
2013-04-25 11:46:00,49.5,33.1,30.27,West,269,6.0,9.0,53,0.00,,,0.05,WUHU216DAVISVP2,2013-04-25 15:46:00,
2013-04-25 11:51:00,49.3,33.4,30.27,West,268,1.0,10.0,54,0.00,,,0.05,WUHU216DAVISVP2,2013-04-25 15:51:00,
2013-04-25 11:56:00,49.8,32.4,30.27,SW,220,5.0,11.0,51,0.00,,,0.05,WUHU216DAVISVP2,2013-04-25 15:56:00,
2013-04-25 12:01:00,50.1,32.7,30.27,NNW,344,3.0,11.0,51,0.00,,,0.05,WUHU216DAVISVP2,2013-04-25 16:01:00,
2013-04-25 12:06:00,50.6,31.1,30.27,SW,228,4.0,11.0,47,0.00,,,0.05,WUHU216DAVISVP2,2013-04-25 16:06:00,
2013-04-25 12:11:00,50.8,31.8,30.27,WNW,285,2.0,11.0,48,0.00,,,0.05,WUHU216DAVISVP2,2013-04-25 16:11:00,
2013-04-25 12:16:00,51.3,33.3,30.27,WNW,303,6.0,11.0,50,0.00,,,0.05,WUHU216DAVISVP2,2013-04-25 16:16:00,
2013-04-25 12:21:00,51.6,29.7,30.27,SW,231,5.0,12.0,43,0.00,,,0.05,WUHU216DAVISVP2,2013-04-25 16:21:00,
2013-04-25 12:26:00,51.6,30.3,30.27,WSW,256,3.0,12.0,44,0.00,,,0.05,WUHU216DAVISVP2,2013-04-25 16:26:00,
2013-04-25 12:31:00,51.6,29.7,30.27,South,191,10.0,12.0,43,0.00,,,0.05,WUHU216DAVISVP2,2013-04-25 16:31:00,
2013-04-25 12:36:00,51.6,29.7,30.27,SE,131,0.0,12.0,43,0.00,,,0.05,WUHU216DAVISVP2,2013-04-25 16:36:00,
2013-04-25 12:41:00,51.8,29.9,30.27,SE,145,2.0,12.0,43,0.00,,,0.05,WUHU216DAVISVP2,2013-04-25 16:41:00,
2013-04-25 12:46:00,51.9,31.1,30.26,SW,226,5.0,12.0,45,0.00,,,0.05,WUHU216DAVISVP2,2013-04-25 16:46:00,
2013-04-25 12:51:00,52.1,31.9,30.26,SSW,201,10.0,12.0,46,0.00,,,0.05,WUHU216DAVISVP2,2013-04-25 16:51:00,
2013-04-25 12:56:00,52.3,30.3,30.26,SSW,211,7.0,11.0,43,0.00,,,0.05,WUHU216DAVISVP2,2013-04-25 16:56:00,
2013-04-25 13:01:00,52.6,30.0,30.26,South,187,3.0,11.0,42,0.00,,,0.05,WUHU216DAVISVP2,2013-04-25 17:01:00,
2013-04-25 13:06:00,52.9,30.9,30.26,South,180,2.0,11.0,43,0.00,,,0.05,WUHU216DAVISVP2,2013-04-25 17:06:00,
2013-04-25 13:11:00,53.2,29.3,30.26,SSW,197,9.0,12.0,40,0.00,,,0.05,WUHU216DAVISVP2,2013-04-25 17:11:00,
2013-04-25 13:16:00,53.0,29.1,30.26,SSW,202,7.0,14.0,40,0.00,,,0.05,WUHU216DAVISVP2,2013-04-25 17:16:00,
2013-04-25 13:21:00,52.9,27.8,30.26,SW,214,4.0,14.0,38,0.00,,,0.05,WUHU216DAVISVP2,2013-04-25 17:21:00,
2013-04-25 13:26:00,53.2,28.7,30.26,SSW,192,7.0,13.0,39,0.00,,,0.05,WUHU216DAVISVP2,2013-04-25 17:26:00,
2013-04-25 13:31:00,53.5,29.0,30.25,South,183,4.0,13.0,39,0.00,,,0.05,WUHU216DAVISVP2,2013-04-25 17:31:00,
2013-04-25 13:36:00,53.7,30.4,30.25,WNW,285,8.0,11.0,41,0.00,,,0.05,WUHU216DAVISVP2,2013-04-25 17:36:00,
2013-04-25 13:41:00,54.2,28.9,30.25,SSW,193,3.0,14.0,38,0.00,,,0.05,WUHU216DAVISVP2,2013-04-25 17:41:00,
2013-04-25 13:46:00,54.2,30.4,30.24,SW,222,7.0,14.0,40,0.00,,,0.05,WUHU216DAVISVP2,2013-04-25 17:46:00,
2013-04-25 13:51:00,54.1,31.5,30.25,SSW,207,3.0,14.0,42,0.00,,,0.05,WUHU216DAVISVP2,2013-04-25 17:51:00,
2013-04-25 13:56:00,54.4,31.0,30.25,WSW,243,6.0,13.0,41,0.00,,,0.05,WUHU216DAVISVP2,2013-04-25 17:56:00,
2013-04-25 14:01:00,54.4,31.0,30.25,SW,214,2.0,13.0,41,0.00,,,0.05,WUHU216DAVISVP2,2013-04-25 18:01:00,
2013-04-25 14:06:00,54.6,30.6,30.24,South,191,3.0,14.0,40,0.00,,,0.05,WUHU216DAVISVP2,2013-04-25 18:06:00,
2013-04-25 14:11:00,55.0,31.6,30.25,South,190,7.0,14.0,41,0.00,,,0.05,WUHU216DAVISVP2,2013-04-25 18:11:00,
2013-04-25 14:16:00,55.4,32.5,30.24,WSW,253,3.0,14.0,42,0.00,,,0.05,WUHU216DAVISVP2,2013-04-25 18:16:00,
2013-04-25 14:21:00,55.7,31.7,30.24,South,189,1.0,14.0,40,0.00,,,0.05,WUHU216DAVISVP2,2013-04-25 18:21:00,
2013-04-25 14:26:00,55.8,29.9,30.24,SSW,192,6.0,16.0,37,0.00,,,0.05,WUHU216DAVISVP2,2013-04-25 18:26:00,
2013-04-25 14:31:00,56.1,33.9,30.24,South,176,5.0,16.0,43,0.00,,,0.05,WUHU216DAVISVP2,2013-04-25 18:31:00,
2013-04-25 14:36:00,56.3,30.3,30.24,SW,223,8.0,16.0,37,0.00,,,0.05,WUHU216DAVISVP2,2013-04-25 18:36:00,
2013-04-25 14:41:00,56.2,35.0,30.23,SSW,199,5.0,16.0,45,0.00,,,0.05,WUHU216DAVISVP2,2013-04-25 18:41:00,
2013-04-25 14:46:00,56.7,31.2,30.23,WNW,296,0.0,13.0,38,0.00,,,0.05,WUHU216DAVISVP2,2013-04-25 18:46:00,
2013-04-25 14:51:00,57.0,36.3,30.23,South,179,5.0,13.0,46,0.00,,,0.05,WUHU216DAVISVP2,2013-04-25 18:51:00,
2013-04-25 14:56:00,57.8,35.9,30.23,SSW,208,6.0,13.0,44,0.00,,,0.05,WUHU216DAVISVP2,2013-04-25 18:56:00,
2013-04-25 15:01:00,57.7,32.1,30.23,WSW,249,1.0,13.0,38,0.00,,,0.05,WUHU216DAVISVP2,2013-04-25 19:01:00,
2013-04-25 15:06:00,57.0,31.4,30.23,SSW,206,5.0,18.0,38,0.00,,,0.05,WUHU216DAVISVP2,2013-04-25 19:06:00,
2013-04-25 15:11:00,56.7,30.5,30.23,South,187,2.0,18.0,37,0.00,,,0.05,WUHU216DAVISVP2,2013-04-25 19:11:00,
2013-04-25 15:16:00,57.0,32.3,30.23,South,176,5.0,18.0,39,0.00,,,0.05,WUHU216DAVISVP2,2013-04-25 19:16:00,
2013-04-25 15:21:00,57.4,31.3,30.23,SSW,207,14.0,18.0,37,0.00,,,0.05,WUHU216DAVISVP2,2013-04-25 19:21:00,
2013-04-25 15:26:00,57.3,31.2,30.22,East,84,0.0,17.0,37,0.00,,,0.05,WUHU216DAVISVP2,2013-04-25 19:26:00,
2013-04-25 15:31:00,57.4,30.6,30.22,SSW,206,5.0,17.0,36,0.00,,,0.05,WUHU216DAVISVP2,2013-04-25 19:31:00,
2013-04-25 15:36:00,57.0,30.1,30.22,WSW,258,3.0,17.0,36,0.00,,,0.05,WUHU216DAVISVP2,2013-04-25 19:36:00,
2013-04-25 15:41:00,57.1,32.2,30.22,SSW,204,8.0,14.0,39,0.00,,,0.05,WUHU216DAVISVP2,2013-04-25 19:41:00,
2013-04-25 15:46:00,57.4,31.8,30.22,SW,224,6.0,14.0,38,0.00,,,0.05,WUHU216DAVISVP2,2013-04-25 19:46:00,
2013-04-25 15:51:00,57.4,31.1,30.21,SSW,201,4.0,14.0,37,0.00,,,0.05,WUHU216DAVISVP2,2013-04-25 19:51:00,
2013-04-25 15:56:00,57.6,32.0,30.21,SSW,207,9.0,14.0,38,0.00,,,0.05,WUHU216DAVISVP2,2013-04-25 19:56:00,
2013-04-25 16:01:00,57.4,31.1,30.22,SSW,210,5.0,14.0,37,0.00,,,0.05,WUHU216DAVISVP2,2013-04-25 20:01:00,
2013-04-25 16:06:00,57.4,31.1,30.21,South,182,3.0,14.0,37,0.00,,,0.05,WUHU216DAVISVP2,2013-04-25 20:06:00,
2013-04-25 16:11:00,58.0,33.6,30.21,SSW,197,3.0,14.0,40,0.00,,,0.05,WUHU216DAVISVP2,2013-04-25 20:11:00,
2013-04-25 16:16:00,58.5,33.4,30.21,SW,214,4.0,13.0,39,0.00,,,0.05,WUHU216DAVISVP2,2013-04-25 20:16:00,
2013-04-25 16:21:00,58.8,33.1,30.21,SSW,199,7.0,11.0,38,0.00,,,0.05,WUHU216DAVISVP2,2013-04-25 20:21:00,
2013-04-25 16:26:00,58.7,33.0,30.21,SW,227,5.0,11.0,38,0.00,,,0.05,WUHU216DAVISVP2,2013-04-25 20:26:00,
2013-04-25 16:31:00,58.8,32.4,30.21,SW,218,4.0,9.0,37,0.00,,,0.05,WUHU216DAVISVP2,2013-04-25 20:31:00,
2013-04-25 16:36:00,59.0,32.6,30.21,SSW,199,2.0,10.0,37,0.00,,,0.05,WUHU216DAVISVP2,2013-04-25 20:36:00,
2013-04-25 16:41:00,59.1,32.6,30.21,SW,224,1.0,10.0,37,0.00,,,0.05,WUHU216DAVISVP2,2013-04-25 20:41:00,
2013-04-25 16:46:00,59.3,32.1,30.21,WSW,252,4.0,10.0,36,0.00,,,0.05,WUHU216DAVISVP2,2013-04-25 20:46:00,
2013-04-25 16:51:00,59.0,31.2,30.20,SW,218,8.0,13.0,35,0.00,,,0.05,WUHU216DAVISVP2,2013-04-25 20:51:00,
2013-04-25 16:56:00,59.1,30.5,30.20,WNW,296,4.0,13.0,34,0.00,,,0.05,WUHU216DAVISVP2,2013-04-25 20:56:00,
2013-04-25 17:01:00,58.9,31.1,30.20,ESE,118,3.0,14.0,35,0.00,,,0.05,WUHU216DAVISVP2,2013-04-25 21:01:00,
2013-04-25 17:06:00,58.9,33.1,30.20,SSW,194,1.0,14.0,38,0.00,,,0.05,WUHU216DAVISVP2,2013-04-25 21:06:00,
2013-04-25 17:11:00,59.3,33.5,30.20,SSW,196,2.0,14.0,38,0.00,,,0.05,WUHU216DAVISVP2,2013-04-25 21:11:00,
2013-04-25 17:16:00,59.3,30.0,30.20,SSW,211,3.0,14.0,33,0.00,,,0.05,WUHU216DAVISVP2,2013-04-25 21:16:00,
2013-04-25 17:21:00,59.3,31.4,30.21,SSW,206,6.0,9.0,35,0.00,,,0.05,WUHU216DAVISVP2,2013-04-25 21:21:00,
2013-04-25 17:26:00,59.3,30.0,30.21,WSW,240,5.0,12.0,33,0.00,,,0.05,WUHU216DAVISVP2,2013-04-25 21:26:00,
2013-04-25 17:31:00,59.4,30.8,30.21,West,268,4.0,12.0,34,0.00,,,0.05,WUHU216DAVISVP2,2013-04-25 21:31:00,
2013-04-25 17:36:00,59.0,27.4,30.21,WSW,241,5.0,12.0,30,0.00,,,0.05,WUHU216DAVISVP2,2013-04-25 21:36:00,
2013-04-25 17:41:00,58.6,28.6,30.21,SSW,202,2.0,12.0,32,0.00,,,0.05,WUHU216DAVISVP2,2013-04-25 21:41:00,
2013-04-25 17:46:00,58.7,28.7,30.21,West,270,7.0,12.0,32,0.00,,,0.05,WUHU216DAVISVP2,2013-04-25 21:46:00,
2013-04-25 17:50:00,58.9,30.4,30.22,WNW,285,3.0,12.0,34,0.00,,,0.05,WUHU216DAVISVP2,2013-04-25 21:50:00,
2013-04-25 17:55:00,59.0,31.2,30.22,South,181,4.0,12.0,35,0.00,,,0.05,WUHU216DAVISVP2,2013-04-25 21:55:00,
2013-04-25 18:00:00,58.9,30.4,30.22,WNW,282,5.0,12.0,34,0.00,,,0.05,WUHU216DAVISVP2,2013-04-25 22:00:00,
2013-04-25 18:05:00,58.1,29.6,30.22,NW,316,3.0,14.0,34,0.00,,,0.05,WUHU216DAVISVP2,2013-04-25 22:05:00,
2013-04-25 18:10:00,57.2,30.3,30.23,NNW,333,7.0,14.0,36,0.00,,,0.05,WUHU216DAVISVP2,2013-04-25 22:10:00,
2013-04-25 18:15:00,56.8,29.2,30.23,WNW,287,7.0,16.0,35,0.00,,,0.05,WUHU216DAVISVP2,2013-04-25 22:15:00,
2013-04-25 18:20:00,56.4,29.6,30.23,West,271,7.0,16.0,36,0.00,,,0.05,WUHU216DAVISVP2,2013-04-25 22:20:00,
2013-04-25 18:25:00,56.3,29.5,30.23,SW,235,4.0,16.0,36,0.00,,,0.05,WUHU216DAVISVP2,2013-04-25 22:25:00,
2013-04-25 18:30:00,56.3,30.8,30.23,WSW,245,2.0,16.0,38,0.00,,,0.05,WUHU216DAVISVP2,2013-04-25 22:30:00,
2013-04-25 18:35:00,56.2,30.7,30.24,SW,220,2.0,15.0,38,0.00,,,0.05,WUHU216DAVISVP2,2013-04-25 22:35:00,
2013-04-25 18:40:00,56.0,31.8,30.24,West,270,6.0,15.0,40,0.00,,,0.05,WUHU216DAVISVP2,2013-04-25 22:40:00,
2013-04-25 18:45:00,55.9,31.1,30.24,SSW,201,4.0,11.0,39,0.00,,,0.05,WUHU216DAVISVP2,2013-04-25 22:45:00,
2013-04-25 18:50:00,55.8,32.3,30.24,NNW,328,1.0,11.0,41,0.00,,,0.05,WUHU216DAVISVP2,2013-04-25 22:50:00,
2013-04-25 18:55:00,55.8,31.0,30.24,West,278,3.0,11.0,39,0.00,,,0.05,WUHU216DAVISVP2,2013-04-25 22:55:00,
2013-04-25 19:00:00,55.7,30.9,30.24,WSW,241,3.0,11.0,39,0.00,,,0.05,WUHU216DAVISVP2,2013-04-25 23:00:00,
2013-04-25 19:05:00,55.5,30.7,30.25,SW,226,8.0,8.0,39,0.00,,,0.05,WUHU216DAVISVP2,2013-04-25 23:05:00,
2013-04-25 19:10:00,55.4,30.7,30.25,SW,221,3.0,11.0,39,0.00,,,0.05,WUHU216DAVISVP2,2013-04-25 23:10:00,
2013-04-25 19:15:00,55.3,31.2,30.25,WSW,253,5.0,11.0,40,0.00,,,0.05,WUHU216DAVISVP2,2013-04-25 23:15:00,
2013-04-25 19:20:00,55.3,30.6,30.25,WSW,241,2.0,11.0,39,0.00,,,0.05,WUHU216DAVISVP2,2013-04-25 23:20:00,
2013-04-25 19:25:00,55.3,30.6,30.25,SW,227,3.0,11.0,39,0.00,,,0.05,WUHU216DAVISVP2,2013-04-25 23:25:00,
2013-04-25 19:30:00,55.3,29.9,30.25,West,268,4.0,9.0,38,0.00,,,0.05,WUHU216DAVISVP2,2013-04-25 23:30:00,
2013-04-25 19:35:00,55.2,30.5,30.25,NNW,345,5.0,9.0,39,0.00,,,0.05,WUHU216DAVISVP2,2013-04-25 23:35:00,
2013-04-25 19:40:00,55.1,29.7,30.25,West,259,8.0,10.0,38,0.00,,,0.05,WUHU216DAVISVP2,2013-04-25 23:40:00,
2013-04-25 19:45:00,55.0,30.9,30.26,West,272,1.0,10.0,40,0.00,,,0.05,WUHU216DAVISVP2,2013-04-25 23:45:00,
2013-04-25 19:50:00,54.8,30.8,30.26,NW,311,4.0,10.0,40,0.00,,,0.05,WUHU216DAVISVP2,2013-04-25 23:50:00,
2013-04-25 19:55:00,54.5,30.5,30.26,NNW,343,6.0,10.0,40,0.00,,,0.05,WUHU216DAVISVP2,2013-04-25 23:55:00,
2013-04-25 20:00:00,54.3,31.5,30.26,West,264,0.0,7.0,42,0.00,,,0.05,WUHU216DAVISVP2,2013-04-26 00:00:00,
2013-04-25 20:05:00,54.0,30.7,30.26,WSW,241,3.0,7.0,41,0.00,,,0.05,WUHU216DAVISVP2,2013-04-26 00:05:00,
2013-04-25 20:10:00,53.8,31.1,30.26,WSW,247,0.0,7.0,42,0.00,,,0.05,WUHU216DAVISVP2,2013-04-26 00:10:00,
2013-04-25 20:15:00,53.6,30.9,30.26,WNW,285,3.0,5.0,42,0.00,,,0.05,WUHU216DAVISVP2,2013-04-26 00:15:00,
2013-04-25 20:20:00,53.3,31.2,30.26,WNW,287,0.0,5.0,43,0.00,,,0.05,WUHU216DAVISVP2,2013-04-26 00:20:00,
2013-04-25 20:25:00,53.0,31.0,30.27,WNW,283,1.0,5.0,43,0.00,,,0.05,WUHU216DAVISVP2,2013-04-26 00:25:00,
2013-04-25 20:30:00,52.6,31.2,30.27,WNW,282,0.0,3.0,44,0.00,,,0.05,WUHU216DAVISVP2,2013-04-26 00:30:00,
2013-04-25 20:35:00,52.3,32.6,30.27,WNW,282,0.0,2.0,47,0.00,,,0.05,WUHU216DAVISVP2,2013-04-26 00:35:00,
2013-04-25 20:40:00,51.8,31.6,30.27,WSW,246,1.0,3.0,46,0.00,,,0.05,WUHU216DAVISVP2,2013-04-26 00:40:00,
2013-04-25 20:45:00,51.5,34.0,30.28,WSW,246,1.0,3.0,51,0.00,,,0.05,WUHU216DAVISVP2,2013-04-26 00:45:00,
2013-04-25 20:50:00,50.9,33.4,30.28,WSW,246,0.0,3.0,51,0.00,,,0.05,WUHU216DAVISVP2,2013-04-26 00:50:00,
2013-04-25 20:55:00,50.4,33.4,30.28,WSW,246,0.0,3.0,52,0.00,,,0.05,WUHU216DAVISVP2,2013-04-26 00:55:00,
2013-04-25 21:00:00,49.9,35.3,30.29,WSW,246,0.0,2.0,57,0.00,,,0.05,WUHU216DAVISVP2,2013-04-26 01:00:00,
2013-04-25 21:05:00,49.4,36.2,30.29,WSW,246,0.0,1.0,60,0.00,,,0.05,WUHU216DAVISVP2,2013-04-26 01:05:00,
2013-04-25 21:10:00,48.9,35.7,30.29,WSW,246,0.0,1.0,60,0.00,,,0.05,WUHU216DAVISVP2,2013-04-26 01:10:00,
2013-04-25 21:15:00,48.5,35.8,30.30,WSW,246,0.0,2.0,61,0.00,,,0.05,WUHU216DAVISVP2,2013-04-26 01:15:00,
2013-04-25 21:20:00,48.1,34.1,30.30,WSW,246,0.0,2.0,58,0.00,,,0.05,WUHU216DAVISVP2,2013-04-26 01:20:00,
2013-04-25 21:25:00,47.9,33.9,30.30,NNE,15,0.0,3.0,58,0.00,,,0.05,WUHU216DAVISVP2,2013-04-26 01:25:00,
2013-04-25 21:30:00,47.8,34.7,30.30,WNW,301,0.0,3.0,60,0.00,,,0.05,WUHU216DAVISVP2,2013-04-26 01:30:00,
2013-04-25 21:36:00,47.7,35.4,30.31,WNW,301,0.0,3.0,62,0.00,,,0.05,WUHU216DAVISVP2,2013-04-26 01:36:00,
2013-04-25 21:41:00,47.6,35.7,30.31,WNW,301,0.0,3.0,63,0.00,,,0.05,WUHU216DAVISVP2,2013-04-26 01:41:00,
2013-04-25 21:46:00,47.4,35.9,30.31,WNW,301,0.0,1.0,64,0.00,,,0.05,WUHU216DAVISVP2,2013-04-26 01:46:00,
2013-04-25 21:51:00,47.2,36.1,30.31,WNW,301,0.0,1.0,65,0.00,,,0.05,WUHU216DAVISVP2,2013-04-26 01:51:00,
2013-04-25 21:56:00,47.1,36.0,30.32,WNW,301,0.0,0.0,65,0.00,,,0.05,WUHU216DAVISVP2,2013-04-26 01:56:00,
2013-04-25 22:01:00,46.9,35.8,30.32,WNW,301,0.0,1.0,65,0.00,,,0.05,WUHU216DAVISVP2,2013-04-26 02:01:00,
2013-04-25 22:06:00,46.7,36.0,30.32,WNW,301,0.0,1.0,66,0.00,,,0.05,WUHU216DAVISVP2,2013-04-26 02:06:00,
2013-04-25 22:11:00,46.3,36.0,30.32,WNW,301,0.0,1.0,67,0.00,,,0.05,WUHU216DAVISVP2,2013-04-26 02:11:00,
2013-04-25 22:16:00,46.1,36.2,30.32,WNW,301,0.0,1.0,68,0.00,,,0.05,WUHU216DAVISVP2,2013-04-26 02:16:00,
2013-04-25 22:21:00,45.8,35.9,30.33,WNW,301,0.0,1.0,68,0.00,,,0.05,WUHU216DAVISVP2,2013-04-26 02:21:00,
2013-04-25 22:26:00,45.7,36.6,30.33,WNW,301,0.0,1.0,70,0.00,,,0.05,WUHU216DAVISVP2,2013-04-26 02:26:00,
2013-04-25 22:31:00,45.5,37.1,30.33,WNW,301,0.0,1.0,72,0.00,,,0.05,WUHU216DAVISVP2,2013-04-26 02:31:00,
2013-04-25 22:36:00,45.4,37.3,30.33,WNW,301,0.0,1.0,73,0.00,,,0.05,WUHU216DAVISVP2,2013-04-26 02:36:00,
2013-04-25 22:41:00,45.4,37.0,30.33,WNW,301,0.0,1.0,72,0.00,,,0.05,WUHU216DAVISVP2,2013-04-26 02:41:00,
2013-04-25 22:46:00,45.2,36.8,30.33,WNW,301,0.0,1.0,72,0.00,,,0.05,WUHU216DAVISVP2,2013-04-26 02:46:00,
2013-04-25 22:51:00,45.2,36.8,30.33,WNW,301,0.0,2.0,72,0.00,,,0.05,WUHU216DAVISVP2,2013-04-26 02:51:00,
2013-04-25 22:56:00,45.4,37.0,30.33,WNW,301,0.0,2.0,72,0.00,,,0.05,WUHU216DAVISVP2,2013-04-26 02:56:00,
2013-04-25 23:01:00,45.4,36.6,30.33,WNW,301,0.0,2.0,71,0.00,,,0.05,WUHU216DAVISVP2,2013-04-26 03:01:00,
2013-04-25 23:06:00,45.4,35.9,30.33,WNW,301,0.0,2.0,69,0.00,,,0.05,WUHU216DAVISVP2,2013-04-26 03:06:00,
2013-04-25 23:11:00,45.4,37.0,30.33,WNW,301,0.0,2.0,72,0.00,,,0.05,WUHU216DAVISVP2,2013-04-26 03:11:00,
2013-04-25 23:16:00,45.3,37.2,30.33,WNW,301,0.0,2.0,73,0.00,,,0.05,WUHU216DAVISVP2,2013-04-26 03:16:00,
2013-04-25 23:21:00,45.3,37.2,30.33,WNW,301,0.0,1.0,73,0.00,,,0.05,WUHU216DAVISVP2,2013-04-26 03:21:00,
2013-04-25 23:26:00,45.2,37.1,30.34,WNW,301,0.0,1.0,73,0.00,,,0.05,WUHU216DAVISVP2,2013-04-26 03:26:00,
2013-04-25 23:31:00,45.2,37.5,30.34,WNW,301,0.0,1.0,74,0.00,,,0.05,WUHU216DAVISVP2,2013-04-26 03:31:00,
2013-04-25 23:36:00,45.2,37.5,30.34,WNW,301,0.0,1.0,74,0.00,,,0.05,WUHU216DAVISVP2,2013-04-26 03:36:00,
2013-04-25 23:41:00,45.3,37.2,30.34,NNW,335,2.0,4.0,73,0.00,,,0.05,WUHU216DAVISVP2,2013-04-26 03:41:00,
2013-04-25 23:46:00,45.7,36.1,30.34,North,359,5.0,6.0,69,0.00,,,0.05,WUHU216DAVISVP2,2013-04-26 03:46:00,
2013-04-25 23:51:00,46.6,36.2,30.35,NNW,348,4.0,12.0,67,0.00,,,0.05,WUHU216DAVISVP2,2013-04-26 03:51:00,
2013-04-25 23:56:00,47.5,36.7,30.35,NNW,337,4.0,12.0,66,0.00,,,0.05,WUHU216DAVISVP2,2013-04-26 03:56:00,